Regional Weather Roundup
Issued by NWS Jackson, KY

Home | Current Version | Previous Version | Text Only | Print | Product List | Glossary Off
Versions: 1 2 3 4 5 6 7 8 9 10 11 12 13 14 15 16 17 18 19 20 21 22 23 24 25 26 27 28 29 30 31 32 33 34 35 36 37 38 39 40 41 42 43 44 45 46 47 48 49 50

000
ASUS43 KJKL 201219
RWRJKL

EAST KENTUCKY HOURLY WEATHER ROUNDUP
NATIONAL WEATHER SERVICE JACKSON KY
800 AM EDT SUN APR 20 2014

NOTE: "FAIR" INDICATES FEW OR NO CLOUDS BELOW 12,000 FEET WITH
NO SIGNIFICANT WEATHER AND/OR OBSTRUCTIONS TO VISIBILITY.

* THESE REPORTS ARE NOT UNDER NWS QUALITY CONTROL AND MAY NOT
  REPORT WEATHER SUCH AS PRECIPITATION AND FOG.

KYZ079-080-083-085-087-088-110-112-115-119-120-201300
...EASTERN KENTUCKY...

CITY           SKY/WX    TMP DP  RH WIND       PRES   REMARKS
JACKSON        MOSUNNY   54  32  43 E3        30.26R
6HR MIN TEMP:  53; 6HR MAX TEMP:  57;

LONDON         SUNNY     46  38  73 CALM      30.25R
6HR MIN TEMP:  43; 6HR MAX TEMP:  56;

SOMERSET*      SUNNY     43  37  81 CALM      30.25S
MONTICELLO*    SUNNY     43  41  93 CALM      30.25R
6HR MIN TEMP:  36; 6HR MAX TEMP:  46;

WILLIAMSBURG*  SUNNY     46  45  93 CALM      30.26R
MIDDLESBORO*   MOSUNNY   44  41  90 CALM      30.27R
6HR MIN TEMP:  41; 6HR MAX TEMP:  47;

HARLAN APT*    SUNNY     45  39  81 CALM      30.26R
BLACK MTN*       N/A     46  30  53 S3          N/A
PIKEVILLE APT* SUNNY     55  37  50 CALM      30.27R
BIG SANDY*     MOSUNNY   52  38  60 CALM      30.27R
6HR MIN TEMP:  48; 6HR MAX TEMP:  55;

ASHLAND*       SUNNY     46  36  66 CALM      30.27R
MOREHEAD APT*  SUNNY     55  30  38 MISG      30.28R
$$

KYZ035-036-041-042-044-050-067-078-099-201300
...CENTRAL KENTUCKY...

CITY           SKY/WX    TMP DP  RH WIND       PRES   REMARKS
MT STERLING*   SUNNY     46  36  66 E6        30.27R
FLEMING/MASON* SUNNY     48  36  61 NE5       30.28R
DANVILLE*      SUNNY     41  37  87 CALM      30.26R
LEXINGTON      SUNNY     50  38  63 E6        30.25R
6HR MIN TEMP:  46; 6HR MAX TEMP:  50;

FRANKFORT      SUNNY     46  37  71 N3        30.25R
6HR MIN TEMP:  40; 6HR MAX TEMP:  54;

$$

KYZ091>093-OHZ055-061-077-WVZ005-015-034-035-042-201300
...SOUTHERN OHIO/WEST VIRGINIA...

CITY           SKY/WX    TMP DP  RH WIND       PRES   REMARKS
COVINGTON      PTSUNNY   48  34  58 NE5       30.27R
COLUMBUS       PTSUNNY   49  32  52 E5        30.28F
DAYTON         PTSUNNY   44  34  67 CALM      30.29S
WILMINGTON     MOSUNNY   45  33  63 NE6       30.28R
HUNTINGTON     MOSUNNY   46  38  73 N3        30.27R
CHARLESTON     MOSUNNY   46  41  82 CALM      30.28R
PINEVILLE*     SUNNY     41  40  97 MISG      30.34R
BECKLEY        MOSUNNY   48  33  56 E8        30.29R
BLUEFIELD      MOSUNNY   50  33  52 VRB6      30.30R
$$

VAZ002-007-008-TNZ017-027-036-066-071-201300
...SOUTHWEST VIRGINIA/EAST TENNESSEE...

CITY           SKY/WX    TMP DP  RH WIND       PRES   REMARKS
WISE*          SUNNY     50  34  53 CALM      30.29R
ABINGDON*      SUNNY     51  38  61 E6        30.28R
BRISTOL        MOSUNNY   45  38  76 CALM      30.28R
KNOXVILLE      MOSUNNY   46  46 100 CALM      30.25R FOG
OAK RIDGE      MOSUNNY   47  44  90 CALM      30.27R
CROSSVILLE     SUNNY     45  40  82 CALM      30.25R
NASHVILLE      PTCLDY    46  43  89 CALM      30.22R
$$

...KEY TO REMARKS...
VSB - VISIBILITY IN MILES
WCI - WIND CHILL INDEX
HX  - HEAT INDEX

$$



USA.gov is the U.S. government's official web portal to all federal, state and local government web resources and services.